Flag for Germany Weather past 2 weeks in Wiesbaden, Hesse, Germany

Now
56 °F

Partly sunny.


Feels Like: 54 °F
Forecast: 42 / 64 °F
Wind: 6 mph from North

Location: Wiesbaden Airport

Current Time: May 26, 2015 at 12:19:53 PM

Latest Report: May 26, 2015 at 11:58 AM


Visibility: N/A

Pressure: 30.10 "Hg

Humidity: 49%

Dew point: 37 °F

Location of WiesbadenLocation

Historic Weather in Wiesbaden — Graph

°F

Wiesbaden temperature yesterday

Maximum temperature yesterday: 70 °F (at 1:58 PM)
Minimum temperature yesterday: 55 °F (at 11:58 PM)
Average temperature yesterday: 61 °F

Past Weeks' High & Low Weather Summary

 TemperatureHumidityPressure
High82 °F (May 12, 3:58 PM)94% (May 13, 10:59 PM)30.34 "Hg (May 13, 10:59 PM)
Low40 °F (May 22, 5:58 AM)33% (May 18, 2:58 PM)29.67 "Hg (May 19, 1:58 AM)
Average59 °F63%30.05 "Hg
* Reported May 11 10:58 AM — May 26 10:58 AM, Wiesbaden, Weather by CustomWeather, © 2015

Note: Actual official high and low records may vary slightly from our data, if they occured in-between our weather recording intervals... More about our weather records

Advertising

Wiesbaden weather history for previous 24 hours

 ConditionsComfort  
Time TempWeatherWind HumidityBarometerVisibility
10:58 AM
Tue, May 26
55 °FPartly sunny.7 mph63%30.10 "HgN/A
9:58 AM55 °FMostly cloudy.6 mph63%30.09 "HgN/A
8:55 AM53 °FPartly sunny.5 mph71%30.07 "HgN/A
7:58 AM52 °FMore clouds than sun.5 mph79%30.04 "HgN/A
6:58 AM51 °FOvercast.5 mph82%30.03 "HgN/A
5:58 AM51 °FMostly cloudy.6 mph84%30.01 "HgN/A
4:58 AM50 °FOvercast.8 mph88%30.01 "HgN/A
3:58 AM49 °FOvercast.3 mph91%30.00 "HgN/A
2:58 AM48 °FPassing clouds.5 mph94%30.00 "HgN/A
1:58 AM49 °FPassing clouds.6 mph88%29.98 "HgN/A
12:58 AM54 °FClear.3 mph77%29.97 "HgN/A
11:58 PM
Mon, May 25
55 °FOvercast.7 mph77%29.97 "HgN/A
10:58 PM56 °FOvercast.5 mph86%29.97 "HgN/A
9:58 PM57 °FCloudy.5 mph82%29.96 "HgN/A
8:58 PM59 °FScattered clouds.6 mph77%29.94 "HgN/A
7:58 PM61 °FPartly sunny.2 mph72%29.93 "HgN/A
6:58 PM60 °FOvercast.3 mph76%29.93 "HgN/A
6:00 PM59 °FScattered clouds.5 mph88%29.93 "HgN/A
4:58 PM57 °FLight rain. Partly sunny.5 mph88%29.94 "HgN/A
3:58 PM62 °FLight rain. Scattered clouds.12 mph70%29.94 "HgN/A
2:58 PM64 °FOvercast.14 mph56%29.94 "HgN/A
1:58 PM70 °FScattered clouds.14 mph46%29.93 "HgN/A
1:04 PM66 °FBroken clouds.9 mph52%29.95 "HgN/A
12:58 PM66 °FBroken clouds.7 mph52%29.95 "HgN/A
Weather by CustomWeather, © 2015

See weather overviewHow to use our weather pages